Wind_Speed
5 5 5 6 6 5 6 8 8 8 9 8 8 9 9 8 8 8 7 7 7 7 7 7 7 8 7 6 6 5 5 5 6 6 6 4 4 4 3 3 2 2 2
6 5 6 7 7 7 7 8 9 9 8 8 8 8 8 7 8 7 7 7 7 7 7 7 7 7 7 7 6 5 5 5 5 5 5 4 3 3 3 2 2 2 2
7 6 7 8 8 8 8 8 9 9 9 9 9 8 7 7 7 7 7 7 7 7 7 7 7 7 6 6 6 5 5 4 4 4 3 3 3 2 2 2 1 2 1
7 7 7 8 8 8 9 9 9 9 9 8 8 8 8 8 8 7 6 6 7 7 7 7 7 6 6 5 5 5 5 4 4 3 3 3 2 2 2 1 1 1 1
8 7 8 8 9 9 9 9 9 9 8 7 7 7 8 8 8 8 7 6 6 6 6 6 6 6 5 5 5 5 4 4 3 3 3 3 2 2 1 1 0 0 1
8 8 9 9 9 9 9 9 8 8 8 7 7 8 9 8 8 8 7 7 6 6 6 6 6 5 5 4 4 4 4 3 2 2 3 3 2 1 2 1 1 2 2
10 10 10 10 9 9 9 9 8 8 7 7 7 7 7 8 8 8 7 7 6 6 6 5 5 4 5 5 4 3 3 3 2 2 3 3 2 2 2 2 2 3 3
11 11 11 10 10 10 10 10 9 8 8 8 8 7 8 7 7 7 6 6 6 6 5 5 3 3 4 5 4 3 3 3 3 2 3 3 3 3 3 3 4 4 4
10 11 11 11 12 11 11 10 9 8 8 8 8 8 8 7 7 7 6 5 5 5 4 4 2 2 4 5 5 4 3 3 3 3 3 3 3 4 4 5 5 5 5
10 11 11 12 12 12 11 11 10 9 9 9 9 8 8 8 7 6 5 4 4 4 3 2 2 2 3 4 4 4 4 3 3 4 4 4 4 5 5 6 5 6 6
11 11 11 12 12 12 12 11 11 10 10 9 9 8 8 8 7 6 5 4 3 2 2 1 1 2 3 3 3 3 3 3 3 4 4 4 5 5 6 7 7 7 6
12 12 12 12 12 13 12 12 12 11 10 10 10 9 8 8 6 6 5 5 4 3 2 0 1 1 2 2 2 2 2 2 2 3 4 5 5 5 6 7 7 7 7
13 12 13 12 13 13 12 12 12 12 11 11 10 10 8 7 6 6 5 5 4 3 2 1 1 1 2 2 2 2 2 2 3 3 4 5 5 7 6 6 7 7 7
13 13 13 13 12 13 13 12 12 11 11 10 9 8 7 7 6 5 5 4 4 3 3 2 2 1 0 1 1 2 3 3 4 4 5 5 6 6 6 7 7 6 7
13 13 12 12 12 12 11 11 11 10 10 9 8 8 7 6 5 5 5 4 3 3 2 2 2 2 1 1 1 2 3 4 4 5 5 6 6 6 7 8 7 8 9
13 12 12 11 10 10 10 10 10 10 9 9 8 7 6 6 5 5 4 3 3 3 3 3 2 2 2 2 2 3 3 3 4 4 5 6 7 7 7 8 8 10 10
13 13 12 10 10 10 9 9 9 9 9 8 7 6 5 5 5 5 4 3 3 3 3 3 3 2 2 2 3 3 3 3 3 4 5 5 6 7 7 9 9 10 10
12 12 11 10 9 9 9 8 8 8 8 7 6 5 5 5 5 5 5 5 4 4 4 4 3 3 3 3 3 3 3 4 4 4 5 6 6 7 8 8 9 10 10
11 11 10 10 9 9 8 7 7 7 7 6 5 5 5 5 6 5 5 5 5 4 4 4 4 4 4 3 3 3 3 4 4 5 6 6 7 8 9 9 10 10 10
10 10 9 9 8 8 8 7 7 6 6 6 6 6 6 6 6 6 5 5 5 5 4 4 4 4 4 4 4 4 4 4 5 5 6 7 7 8 9 9 9 9 10
10 9 8 8 8 8 7 7 6 6 6 6 5 6 6 6 6 6 6 5 5 5 5 5 5 4 4 4 4 5 5 6 6 6 6 7 7 8 9 9 9 9 10
9 9 8 8 9 8 8 7 7 6 6 6 6 5 5 6 6 6 6 5 5 5 5 5 6 5 4 4 5 5 5 6 7 7 7 7 8 8 9 9 9 10 11
7 8 8 8 8 8 8 7 7 6 6 6 6 6 5 6 6 5 5 5 5 5 5 5 6 6 4 4 5 6 6 6 7 8 8 8 9 9 9 10 10 11 11
6 6 7 7 7 7 7 7 7 7 6 6 6 6 5 5 5 5 5 5 5 5 6 6 6 6 6 5 5 6 7 8 8 8 9 9 10 10 10 11 11 12 12
4 5 5 6 6 5 6 6 5 5 5 6 6 5 5 5 4 5 5 5 5 5 5 5 6 7 6 6 6 7 8 9 8 9 9 10 11 11 11 11 12 12 12
4 4 4 4 5 5 5 4 4 4 4 4 4 4 4 4 4 4 5 5 5 5 5 6 6 7 7 7 7 8 8 9 9 10 10 11 11 11 11 12 12 12 13
Wind_Direction
86 92 104 110 125 125 124 129 131 129 123 122 128 135 137 135 132 143 152 153 150 151 153 152 150 144 142 140 134 129 130 134 144 148 150 150 152 142 135 133 134 129 123
80 88 97 111 117 123 125 129 129 124 125 126 129 136 135 136 135 140 149 147 145 145 145 147 147 147 148 143 139 135 131 128 132 145 154 157 161 158 154 154 149 151 151
82 87 94 104 110 113 121 124 122 121 119 122 127 133 139 141 138 138 143 143 146 149 148 149 150 153 152 150 148 148 142 138 132 139 153 160 162 161 163 165 185 178 165
84 90 90 97 98 107 117 122 123 123 120 119 125 131 138 141 141 143 144 148 148 149 149 149 151 152 154 155 158 160 155 153 144 140 143 152 156 163 164 169 188 191 182
82 88 93 96 100 108 115 116 119 121 119 116 122 129 132 134 135 141 146 147 146 146 150 151 153 153 158 166 173 172 166 167 167 164 162 157 167 181 204 211 207 214 215
83 88 93 94 100 103 110 110 112 117 119 118 118 124 131 132 138 142 143 144 144 143 148 155 158 159 167 177 177 178 181 189 194 198 199 197 212 233 249 232 234 252 265
81 85 90 92 96 100 105 109 112 113 118 120 124 128 138 141 143 143 140 141 144 147 148 154 156 167 183 189 184 188 198 205 213 225 224 219 232 248 241 238 251 267 268
83 86 87 88 91 97 104 105 105 109 114 119 124 131 138 139 142 143 136 137 141 145 144 146 155 178 194 197 193 196 200 208 220 237 227 232 242 244 243 250 260 269 268
82 85 87 89 93 98 97 95 98 102 112 121 124 127 131 137 135 130 130 137 140 142 145 146 156 209 204 205 202 207 210 222 233 237 242 249 253 255 256 259 260 263 264
81 84 87 88 92 93 96 96 95 99 109 119 122 127 130 137 133 130 127 134 137 140 146 148 153 146 169 192 199 213 220 220 236 242 244 248 260 263 269 263 267 275 268
81 85 90 88 88 92 94 94 93 96 103 112 119 124 125 131 135 132 125 128 128 142 163 176 135 124 162 190 199 210 223 235 253 247 249 255 264 267 270 269 270 272 268
84 86 89 89 89 90 92 96 96 98 104 108 115 120 121 126 129 128 128 133 135 138 149 196 167 172 179 197 206 217 227 256 270 266 261 263 271 275 274 272 276 271 273
83 86 88 88 89 89 92 97 98 100 105 109 113 113 119 121 122 124 125 123 127 125 120 137 165 204 213 217 219 235 253 272 282 279 271 269 276 278 275 283 285 280 278
84 85 86 88 90 91 93 96 98 99 101 105 107 108 101 104 111 114 110 108 108 109 111 108 99 80 176 230 242 266 275 284 290 291 280 275 277 279 285 293 289 286 285
81 82 87 91 91 92 93 95 96 96 99 99 100 99 93 95 102 106 101 103 95 98 101 95 82 58 38 10 327 305 299 294 292 292 282 278 283 292 296 294 292 289 290
79 81 84 87 87 88 89 92 95 95 99 101 101 98 92 90 93 94 92 96 97 84 77 77 68 46 25 355 338 338 331 311 295 291 292 287 286 296 295 293 291 288 291
80 83 82 83 85 85 87 90 92 93 96 96 95 93 89 88 86 80 78 83 87 75 73 63 46 38 21 354 339 338 338 341 321 303 300 298 295 298 299 298 294 295 293
80 81 82 81 82 85 88 92 93 91 93 91 86 80 80 82 85 82 72 70 72 64 53 39 28 20 7 353 344 338 336 333 323 312 307 300 300 301 305 305 299 298 293
78 78 77 75 78 81 86 88 89 90 90 85 78 79 82 84 83 75 69 65 65 58 46 32 21 17 15 9 4 354 342 333 327 319 315 313 310 307 305 300 296 295 294
73 74 74 71 74 77 82 87 86 84 85 84 83 83 81 84 82 75 71 70 63 54 46 35 23 24 23 20 13 3 353 349 345 337 328 320 317 314 313 306 300 299 301
72 72 72 75 74 75 77 82 83 83 78 78 79 82 81 83 82 76 72 68 63 55 47 38 30 23 15 7 359 353 352 345 341 335 330 326 325 321 321 320 315 311 309
71 67 71 72 71 74 76 77 80 81 72 73 78 83 84 87 83 78 71 63 56 50 38 27 18 11 8 7 358 349 342 336 332 329 328 332 332 330 327 326 321 317 313
70 65 68 72 71 70 71 72 74 78 76 76 75 83 88 84 75 70 59 52 46 40 32 22 12 7 360 355 350 343 342 337 329 333 331 331 331 328 324 323 320 316 313
70 69 67 71 69 70 70 67 68 71 75 75 75 82 86 79 68 58 49 42 36 32 29 24 17 13 7 360 348 338 337 336 332 331 331 327 324 323 321 319 319 317 315
65 64 68 73 70 66 64 63 66 68 72 72 68 75 77 69 57 50 44 37 33 28 25 19 14 11 8 1 351 344 338 333 330 331 331 327 324 320 317 317 319 319 319
61 62 66 71 66 62 58 58 60 61 66 65 62 66 68 62 55 51 42 35 28 23 17 11 5 360 358 355 350 344 340 335 336 335 332 328 326 324 322 321 322 320 319
Height
5853 5853 5852 5851 5852 5854 5854 5856 5857 5859 5860 5861 5862 5863 5865 5866 5868 5869 5870 5871 5872 5873 5875 5876 5877 5878 5879 5880 5881 5881 5882 5883 5883 5884 5885 5886 5887 5887 5888 5888 5889 5889 5890
5854 5854 5853 5853 5853 5854 5855 5857 5858 5860 5861 5862 5863 5865 5866 5867 5869 5870 5871 5872 5873 5874 5875 5876 5878 5879 5880 5881 5882 5882 5883 5883 5884 5885 5886 5886 5887 5888 5888 5889 5889 5890 5890
5855 5855 5855 5854 5855 5856 5857 5858 5860 5861 5862 5863 5864 5866 5867 5868 5870 5871 5872 5873 5874 5875 5876 5877 5878 5879 5880 5881 5882 5883 5884 5884 5885 5886 5886 5887 5887 5888 5889 5889 5889 5889 5889
5856 5856 5856 5856 5857 5857 5858 5860 5861 5862 5863 5865 5866 5867 5868 5869 5870 5872 5873 5874 5875 5876 5877 5878 5879 5880 5881 5882 5883 5883 5884 5885 5886 5886 5887 5887 5888 5889 5889 5889 5889 5889 5889
5858 5858 5858 5858 5858 5858 5860 5861 5862 5863 5864 5866 5867 5868 5869 5870 5871 5873 5874 5875 5876 5876 5877 5878 5879 5880 5881 5882 5883 5884 5885 5886 5886 5887 5887 5888 5888 5889 5889 5889 5889 5889 5889
5860 5859 5859 5859 5859 5860 5861 5862 5863 5864 5865 5867 5868 5869 5870 5871 5872 5873 5875 5876 5876 5877 5878 5879 5880 5880 5881 5882 5883 5884 5885 5886 5886 5887 5888 5888 5888 5888 5889 5889 5889 5889 5889
5861 5861 5860 5861 5861 5862 5862 5863 5864 5865 5866 5867 5868 5870 5871 5872 5873 5874 5875 5876 5877 5878 5879 5879 5880 5880 5881 5882 5883 5884 5885 5886 5887 5887 5888 5888 5888 5888 5889 5889 5889 5889 5888
5863 5862 5862 5862 5863 5863 5864 5864 5865 5866 5867 5868 5869 5870 5872 5873 5874 5875 5876 5877 5878 5879 5879 5879 5879 5879 5879 5881 5883 5884 5885 5886 5886 5887 5887 5888 5888 5888 5888 5888 5888 5888 5888
5865 5864 5864 5864 5864 5864 5865 5865 5866 5866 5867 5869 5870 5871 5873 5874 5875 5876 5877 5878 5879 5879 5880 5879 5879 5876 5876 5879 5882 5884 5885 5885 5886 5886 5887 5887 5888 5888 5888 5887 5887 5887 5887
5867 5866 5866 5866 5866 5866 5867 5867 5867 5867 5868 5869 5871 5873 5874 5875 5876 5877 5878 5879 5879 5880 5880 5880 5879 5877 5877 5879 5882 5883 5884 5885 5886 5886 5886 5887 5887 5887 5887 5887 5887 5886 5885
5869 5868 5869 5869 5869 5869 5868 5868 5868 5869 5869 5871 5872 5874 5874 5876 5877 5878 5879 5879 5880 5880 5881 5881 5880 5878 5879 5881 5882 5883 5884 5885 5885 5885 5886 5886 5886 5886 5886 5886 5886 5885 5885
5871 5871 5871 5871 5871 5871 5871 5871 5870 5871 5871 5873 5874 5875 5876 5878 5878 5879 5880 5880 5881 5881 5881 5881 5881 5881 5881 5882 5883 5883 5884 5884 5884 5884 5885 5885 5885 5885 5885 5885 5884 5884 5884
5873 5873 5873 5873 5874 5873 5873 5873 5873 5874 5874 5875 5876 5877 5878 5879 5879 5880 5881 5881 5882 5882 5882 5882 5882 5882 5883 5883 5883 5884 5884 5884 5884 5884 5884 5884 5884 5884 5883 5883 5883 5883 5882
5876 5876 5876 5876 5876 5876 5876 5876 5876 5876 5877 5877 5878 5879 5880 5880 5881 5881 5882 5882 5883 5883 5883 5883 5883 5883 5884 5884 5884 5884 5884 5884 5884 5883 5883 5883 5883 5883 5882 5882 5882 5881 5881
5878 5878 5878 5878 5878 5878 5878 5878 5878 5879 5879 5879 5880 5880 5881 5882 5882 5882 5882 5883 5883 5884 5884 5884 5884 5884 5884 5884 5884 5884 5884 5883 5883 5883 5883 5883 5882 5882 5881 5881 5880 5880 5879
5880 5880 5880 5881 5881 5881 5881 5881 5881 5881 5881 5881 5882 5882 5882 5883 5883 5883 5884 5884 5884 5884 5884 5884 5884 5884 5884 5884 5884 5883 5883 5883 5882 5882 5882 5882 5881 5881 5880 5880 5879 5878 5877
5883 5883 5883 5883 5883 5883 5883 5883 5883 5883 5883 5883 5883 5883 5883 5884 5884 5884 5884 5885 5885 5885 5885 5885 5885 5884 5884 5884 5884 5883 5883 5882 5882 5881 5881 5881 5880 5880 5879 5878 5877 5876 5875
5886 5886 5885 5885 5885 5884 5884 5884 5884 5884 5884 5884 5884 5884 5885 5885 5885 5885 5885 5885 5885 5885 5885 5885 5885 5884 5884 5883 5883 5882 5882 5882 5881 5881 5880 5879 5879 5878 5878 5877 5876 5875 5874
5888 5888 5887 5887 5887 5886 5886 5886 5886 5886 5886 5886 5886 5886 5886 5886 5886 5886 5886 5886 5886 5886 5885 5885 5885 5884 5884 5883 5882 5882 5882 5881 5881 5880 5880 5879 5878 5877 5876 5875 5875 5874 5873
5890 5890 5889 5889 5888 5888 5888 5888 5888 5887 5887 5887 5887 5887 5887 5887 5887 5887 5887 5887 5887 5886 5886 5886 5885 5884 5884 5883 5882 5882 5881 5881 5880 5879 5879 5878 5877 5876 5875 5874 5873 5872 5871
5892 5891 5891 5891 5890 5890 5889 5889 5889 5889 5889 5889 5889 5888 5888 5888 5888 5888 5888 5888 5887 5887 5887 5886 5885 5885 5884 5883 5883 5882 5881 5880 5879 5879 5877 5877 5876 5875 5874 5873 5872 5870 5869
5894 5893 5892 5892 5892 5892 5891 5891 5890 5890 5890 5890 5890 5890 5889 5889 5889 5889 5889 5889 5888 5887 5887 5886 5886 5885 5884 5883 5883 5882 5881 5881 5879 5878 5877 5876 5875 5874 5873 5872 5870 5869 5867
5895 5895 5894 5894 5893 5893 5892 5892 5892 5892 5891 5891 5891 5891 5891 5890 5890 5890 5890 5889 5889 5888 5887 5886 5885 5885 5884 5883 5882 5882 5881 5880 5878 5877 5876 5875 5874 5872 5871 5870 5868 5867 5866
5896 5896 5896 5895 5895 5894 5894 5894 5893 5893 5893 5893 5892 5892 5892 5891 5891 5891 5890 5890 5889 5888 5888 5887 5886 5885 5883 5883 5882 5881 5880 5879 5878 5876 5875 5874 5872 5871 5870 5868 5867 5865 5863
5897 5897 5896 5896 5896 5896 5895 5895 5895 5894 5894 5894 5893 5893 5892 5892 5892 5891 5891 5890 5890 5889 5888 5887 5886 5885 5883 5882 5881 5880 5879 5878 5877 5875 5874 5873 5871 5869 5868 5866 5864 5863 5861
5898 5897 5897 5897 5897 5897 5896 5896 5896 5895 5895 5894 5894 5894 5893 5893 5892 5892 5891 5891 5890 5889 5888 5887 5885 5884 5883 5882 5881 5879 5878 5877 5875 5874 5872 5871 5869 5867 5866 5864 5862 5860 5859